Weather History for Madison, MN

Change the Weather History Date:

Monday, March 25, 2013

  Actual Average (KAQP) Record (KAQP)
Temperature  
Mean Temperature 22 °F -  
Max Temperature 28 °F 40 °F 64 °F (2004)
Min Temperature 17 °F 22 °F -5 °F (2002)
Degree Days  
Heating Degree Days 42    
Moisture  
Dew Point 19 °F    
Average Humidity 81    
Maximum Humidity 93    
Minimum Humidity 69    
Precipitation  
Precipitation 0.00 in - - ()
Sea Level Pressure  
Sea Level Pressure 30.23 in    
Wind  
Wind Speed 19 mph (NNW)    
Max Wind Speed 24 mph    
Max Gust Speed 30 mph    
Visibility 9 miles    
Events Snow    
Averages and records for this station are not official NWS values.
T = Trace of Precipitation, MM = Missing Value Source: NWS Daily Summary

Daily Weather History Graph

Daily Weather History Graph

Search for Another Location

Airport:

Trip Planner

Search our weather history database for the weather conditions in past years. The results will help you decide how hot, cold, wet, or windy it might be!

Date:

Astronomy

Mar. 25, 2013 Rise Set
Actual Time 7:17 AM CDT 7:43 PM CDT
Civil Twilight 6:48 AM CDT 8:13 PM CDT
Nautical Twilight 6:13 AM CDT 8:48 PM CDT
Astronomical Twilight 5:38 AM CDT 9:24 PM CDT
Moon 6:14 PM CDT (3/25) 6:05 AM CDT (3/25)
Length of Visible Light 13h 24m
Length of Day
12h 26m
Waxing Gibbous, 96% of the Moon is Illuminated
Mar 25
Waxing Gibbous
Mar 27
Full
Apr 2
Last Quarter
Apr 10
New
Apr 18
First Quarter

Hourly Weather History & Observations

Time (CDT) Temp. Windchill Dew Point Humidity Pressure Visibility Wind Dir Wind Speed Gust Speed Precip Events Conditions
12:13 AM 23.0 °F 8.3 °F 19.4 °F 86% 30.14 in 7.0 mi NNW 19.6 mph - N/A   Scattered Clouds
12:34 AM 23.0 °F 8.7 °F 19.4 °F 86% 30.14 in 7.0 mi NNW 18.4 mph 25.3 mph N/A Snow Light Snow
12:54 AM 23.0 °F 8.3 °F 19.4 °F 86% 30.14 in 7.0 mi NNW 19.6 mph - N/A Snow Light Snow
1:13 AM 23.0 °F 8.3 °F 19.4 °F 86% 30.14 in 7.0 mi NNW 19.6 mph - N/A Snow Light Snow
1:34 AM 23.0 °F 8.3 °F 19.4 °F 86% 30.14 in 5.0 mi NNW 19.6 mph - N/A Snow Light Snow
1:54 AM 23.0 °F 8.3 °F 21.2 °F 93% 30.14 in 5.0 mi NNW 19.6 mph - N/A Snow Light Snow
2:13 AM 23.0 °F 7.6 °F 19.4 °F 86% 30.14 in 5.0 mi NNW 21.9 mph - N/A Snow Light Snow
2:34 AM 23.0 °F 7.6 °F 19.4 °F 86% 30.14 in 5.0 mi NNW 21.9 mph 26.5 mph N/A Snow Light Snow
2:54 AM 23.0 °F 6.9 °F 19.4 °F 86% 30.14 in 5.0 mi NNW 24.2 mph - N/A Snow Light Snow
3:13 AM 23.0 °F 7.2 °F 19.4 °F 86% 30.14 in 4.0 mi NNW 23.0 mph 27.6 mph N/A   Overcast
3:34 AM 23.0 °F 8.0 °F 19.4 °F 86% 30.14 in 5.0 mi NNW 20.7 mph 27.6 mph N/A   Overcast
3:54 AM 23.0 °F 8.3 °F 19.4 °F 86% 30.14 in 10.0 mi NNW 19.6 mph - N/A   Overcast
4:13 AM 23.0 °F 7.6 °F 19.4 °F 86% 30.14 in 10.0 mi NNW 21.9 mph - N/A   Overcast
4:34 AM 23.0 °F 8.3 °F 19.4 °F 86% 30.15 in 10.0 mi NNW 19.6 mph 26.5 mph N/A   Overcast
4:54 AM 23.0 °F 8.0 °F 19.4 °F 86% 30.15 in 10.0 mi NNW 20.7 mph - N/A   Overcast
5:13 AM 23.0 °F 8.0 °F 19.4 °F 86% 30.16 in 10.0 mi NNW 20.7 mph 25.3 mph N/A   Overcast
5:34 AM 23.0 °F 7.6 °F 19.4 °F 86% 30.16 in 10.0 mi NNW 21.9 mph - N/A   Overcast
5:54 AM 23.0 °F 7.6 °F 19.4 °F 86% 30.17 in 7.0 mi NNW 21.9 mph - N/A Snow Light Snow
6:13 AM 23.0 °F 8.3 °F 19.4 °F 86% 30.17 in 7.0 mi NNW 19.6 mph - N/A Snow Light Snow
6:34 AM 23.0 °F 7.2 °F 19.4 °F 86% 30.18 in 5.0 mi NNW 23.0 mph - N/A Snow Light Snow
6:54 AM 23.0 °F 8.0 °F 19.4 °F 86% 30.18 in 4.0 mi NNW 20.7 mph - N/A Snow Light Snow
7:13 AM 21.2 °F 7.3 °F 19.4 °F 93% 30.19 in 7.0 mi NNW 16.1 mph - N/A Snow Light Snow
7:33 AM 21.2 °F 6.4 °F 19.4 °F 93% 30.20 in 4.0 mi NNW 18.4 mph - N/A   Overcast
7:54 AM 21.2 °F 6.4 °F 19.4 °F 93% 30.21 in 7.0 mi NNW 18.4 mph - N/A Snow Light Snow
8:13 AM 21.2 °F 5.6 °F 19.4 °F 93% 30.21 in 2.5 mi NNW 20.7 mph - N/A Snow Light Snow
8:25 AM 23.0 °F 8.3 °F 19.4 °F 86% 30.21 in 3.0 mi NNW 19.6 mph 24.2 mph N/A Snow Light Snow
8:54 AM 23.0 °F 10.1 °F 19.4 °F 86% 30.23 in 10.0 mi NNW 15.0 mph - N/A   Overcast
9:13 AM 23.0 °F 9.2 °F 19.4 °F 86% 30.23 in 10.0 mi NW 17.3 mph 20.7 mph N/A   Overcast
9:33 AM 23.0 °F 9.2 °F 19.4 °F 86% 30.23 in 10.0 mi NNW 17.3 mph - N/A   Overcast
9:54 AM 23.0 °F 8.3 °F 19.4 °F 86% 30.24 in 10.0 mi NNW 19.6 mph 23.0 mph N/A Snow Light Snow
10:13 AM 24.8 °F 11.5 °F 19.4 °F 80% 30.24 in 10.0 mi NNW 17.3 mph - N/A Snow Light Snow
10:33 AM 24.8 °F 11.1 °F 19.4 °F 80% 30.24 in 10.0 mi NNW 18.4 mph - N/A   Overcast
10:54 AM 24.8 °F 11.1 °F 19.4 °F 80% 30.25 in 10.0 mi NNW 18.4 mph - N/A   Overcast
11:13 AM 24.8 °F 10.7 °F 19.4 °F 80% 30.25 in 10.0 mi NNW 19.6 mph 25.3 mph N/A   Overcast
11:33 AM 26.6 °F 13.1 °F 19.4 °F 74% 30.25 in 10.0 mi NNW 19.6 mph 25.3 mph N/A   Overcast
11:54 AM 26.6 °F 13.4 °F 19.4 °F 74% 30.25 in 10.0 mi NNW 18.4 mph - N/A   Overcast
12:13 PM 26.6 °F 12.7 °F 19.4 °F 74% 30.25 in 10.0 mi NNW 20.7 mph - N/A   Overcast
12:33 PM 26.6 °F 12.7 °F 19.4 °F 74% 30.25 in 10.0 mi NNW 20.7 mph - N/A   Overcast
12:54 PM 26.6 °F 13.1 °F 21.2 °F 80% 30.25 in 10.0 mi NNW 19.6 mph - N/A   Overcast
1:13 PM 28.4 °F 14.7 °F 21.2 °F 74% 30.25 in 10.0 mi NNW 21.9 mph - N/A   Overcast
1:33 PM 28.4 °F 15.4 °F 21.2 °F 74% 30.25 in 10.0 mi NNW 19.6 mph - N/A   Overcast
1:54 PM 28.4 °F 14.7 °F 21.2 °F 74% 30.25 in 10.0 mi NNW 21.9 mph - N/A   Mostly Cloudy
2:13 PM 28.4 °F 15.1 °F 21.2 °F 74% 30.25 in 10.0 mi NNW 20.7 mph - N/A   Scattered Clouds
2:33 PM 28.4 °F 14.4 °F 21.2 °F 74% 30.25 in 10.0 mi NNW 23.0 mph 27.6 mph N/A   Mostly Cloudy
2:54 PM 28.4 °F 14.7 °F 21.2 °F 74% 30.25 in 10.0 mi NNW 21.9 mph 27.6 mph N/A   Overcast
3:13 PM 28.4 °F 14.7 °F 21.2 °F 74% 30.25 in 10.0 mi NNW 21.9 mph 26.5 mph N/A   Overcast
3:33 PM 28.4 °F 14.4 °F 19.4 °F 69% 30.25 in 10.0 mi NNW 23.0 mph - N/A   Mostly Cloudy
3:54 PM 28.4 °F 14.7 °F 19.4 °F 69% 30.25 in 10.0 mi NNW 21.9 mph - N/A   Scattered Clouds
4:14 PM 28.4 °F 15.1 °F 19.4 °F 69% 30.26 in 10.0 mi NNW 20.7 mph 27.6 mph N/A   Clear
4:33 PM 28.4 °F 15.1 °F 19.4 °F 69% 30.26 in 10.0 mi NNW 20.7 mph 26.5 mph N/A   Clear
4:54 PM 28.4 °F 15.4 °F 19.4 °F 69% 30.27 in 10.0 mi NNW 19.6 mph 25.3 mph N/A   Scattered Clouds
5:13 PM 28.4 °F 15.1 °F 19.4 °F 69% 30.27 in 10.0 mi North 20.7 mph 25.3 mph N/A   Scattered Clouds
5:34 PM 26.6 °F 13.1 °F 17.6 °F 69% 30.28 in 10.0 mi NNW 19.6 mph 29.9 mph N/A   Scattered Clouds
5:54 PM 26.6 °F 13.1 °F 17.6 °F 69% 30.28 in 10.0 mi NNW 19.6 mph - N/A   Clear
6:13 PM 26.6 °F 13.8 °F 17.6 °F 69% 30.29 in 10.0 mi NNW 17.3 mph - N/A   Clear
6:34 PM 24.8 °F 11.5 °F 17.6 °F 74% 30.29 in 10.0 mi NNW 17.3 mph - N/A   Scattered Clouds
6:54 PM 24.8 °F 11.9 °F 17.6 °F 74% 30.30 in 10.0 mi NNW 16.1 mph - N/A   Clear
7:13 PM 24.8 °F 12.9 °F 17.6 °F 74% 30.30 in 10.0 mi NNW 13.8 mph - N/A   Clear
7:34 PM 24.8 °F 12.9 °F 17.6 °F 74% 30.31 in 10.0 mi NNW 13.8 mph - N/A   Scattered Clouds
7:53 PM 24.8 °F 12.9 °F 17.6 °F 74% 30.31 in 10.0 mi NNW 13.8 mph - N/A   Mostly Cloudy
8:14 PM 24.8 °F 14.0 °F 19.4 °F 80% 30.31 in 10.0 mi NNW 11.5 mph - N/A   Mostly Cloudy
8:34 PM 23.0 °F 10.6 °F 17.6 °F 80% 30.31 in 10.0 mi NNW 13.8 mph - N/A   Scattered Clouds
8:53 PM 23.0 °F 11.1 °F 17.6 °F 80% 30.31 in 10.0 mi NW 12.7 mph - N/A   Scattered Clouds
9:14 PM 23.0 °F 10.6 °F 17.6 °F 80% 30.32 in 10.0 mi NNW 13.8 mph - N/A   Clear
9:33 PM 21.2 °F 10.1 °F 17.6 °F 86% 30.32 in 10.0 mi NW 10.4 mph - N/A   Clear
9:54 PM 21.2 °F 10.1 °F 17.6 °F 86% 30.32 in 10.0 mi NW 10.4 mph - N/A   Clear
10:13 PM 19.4 °F 8.6 °F 15.8 °F 86% 30.32 in 10.0 mi NW 9.2 mph - N/A   Clear
10:34 PM 19.4 °F 8.6 °F 15.8 °F 86% 30.33 in 10.0 mi NW 9.2 mph - N/A   Clear
10:54 PM 19.4 °F 7.9 °F 15.8 °F 86% 30.32 in 10.0 mi NW 10.4 mph - N/A   Clear
11:13 PM 17.6 °F 6.4 °F 14.0 °F 86% 30.33 in 10.0 mi NW 9.2 mph - N/A   Clear
11:34 PM 17.6 °F 6.4 °F 14.0 °F 86% 30.33 in 10.0 mi NW 9.2 mph - N/A   Clear
11:54 PM 17.6 °F 6.4 °F 12.2 °F 79% 30.33 in 10.0 mi NW 9.2 mph - N/A   Clear